Location: Praha
(50.0875°N, 14.4213°E)
Time: 06:46:40
(UTC+02:00)

ISS - Pass Details

Date: 07 May 2026
Orbit: 413 x 423 km, 51.6° (Epoch: 5 June)

Event Time Altitude Azimuth Distance (km) Brightness Sun altitude
Exits shadow 03:19:27 14° 284° (WNW) 1,276 -1.5 -16.3°
Maximum altitude 03:22:15 71° 201° (SSW) 447 -3.9 -16.1°
Drops below altitude 10° 03:25:36 10° 117° (ESE) 1,500 -0.8 -15.7°
Sets 03:27:42 0° 115° (ESE) 2,364 0.2 -15.5°
